Home > Weather > Kapurthala > Past weeks

Flag for India Past Weather in Kapurthala, Punjab, India — Yesterday and Last 2 Weeks

Now
93 °F

Fog.


Feels Like: 121 °F
Forecast: 78 / 86 °F
Wind: 6 mph from East

Location: Amritsar Airport

Current Time: Jul 26, 2016 at 1:52:00 PM

Latest Report: Jul 26, 2016 at 1:30 PM


Visibility: 2 mi

Pressure: 29.65 "Hg

Humidity: 75%

Dew Point: 84 °F

Location of KapurthalaLocation

Past Weather in Kapurthala — Graph

°F

Kapurthala Temperature Yesterday

Maximum temperature yesterday: 93 °F (at 4:30 PM)
Minimum temperature yesterday: 82 °F (at 1:00 PM)
Average temperature yesterday: 87 °F

High & Low Weather Summary for the Past Weeks

 TemperatureHumidityPressure
High99 °F (Jul 21, 1:00 PM)100% (Jul 12, 3:30 AM)29.71 "Hg (Jul 12, 3:30 AM)
Low73 °F (Jul 17, 5:00 AM)50% (Jul 21, 3:30 PM)29.42 "Hg (Jul 11, 3:30 PM)
Average87 °F88%29.54 "Hg
* Reported Jul 11 12:30 PM — Jul 26 12:30 PM, Kapurthala, Weather by CustomWeather, © 2016

Note: Actual official high and low records may vary slightly from our data, if they occured in-between our weather recording intervals... More about our weather records

Advertising

Kapurthala Weather History for the Previous 24 Hours

Scroll right to see more
 ConditionsComfort  
Time TempWeatherWind HumidityBarometerVisibility
12:30 PM
Tue, Jul 26
93 °FFog.5 mph75%29.65 "Hg2 mi
12:00 PM91 °FFog.6 mph80%29.65 "Hg2 mi
11:30 AM91 °FFog.5 mph80%29.65 "Hg2 mi
11:00 AM91 °FFog.3 mph89%29.65 "Hg2 mi
10:30 AM90 °FFog.3 mph94%29.65 "Hg2 mi
10:00 AM90 °FFog.5 mph94%29.65 "Hg2 mi
9:30 AM90 °FFog.5 mph100%29.65 "Hg2 mi
9:00 AM88 °FFog.3 mph100%29.65 "Hg2 mi
8:30 AM88 °FFog.2 mph100%29.65 "Hg2 mi
8:00 AM86 °FFog.2 mph100%29.65 "Hg1 mi
7:30 AM84 °FFog.No wind100%29.62 "Hg1 mi
7:00 AM84 °FFog.No wind100%29.62 "Hg1 mi
6:30 AM82 °FFog.No wind100%29.62 "Hg1 mi
6:00 AM82 °FFog.No wind100%29.62 "Hg1 mi
5:30 AM82 °FFog.No wind100%29.62 "Hg1 mi
5:00 AM82 °FFog.No wind100%29.62 "Hg1 mi
4:30 AM82 °FFog.2 mph100%29.59 "Hg1 mi
4:00 AM84 °FFog.No wind100%29.59 "Hg1 mi
3:30 AM84 °FFog.No wind100%29.59 "Hg1 mi
3:00 AM84 °FFog.No wind100%29.59 "Hg1 mi
2:30 AM84 °FFog.No wind100%29.62 "Hg1 mi
2:00 AM84 °FFog.2 mph100%29.62 "Hg1 mi
1:30 AM84 °FFog.2 mph100%29.62 "Hg1 mi
1:00 AM84 °FFog.2 mph100%29.62 "Hg1 mi
12:30 AM84 °FFog.No wind100%29.62 "Hg2 mi
12:00 AM86 °FFog.No wind100%29.62 "Hg2 mi
11:30 PM
Mon, Jul 25
86 °FFog.No wind100%29.59 "Hg2 mi
11:00 PM86 °FFog.No wind100%29.59 "Hg2 mi
10:30 PM86 °FFog.No wind100%29.59 "Hg2 mi
10:00 PM86 °FFog.2 mph100%29.59 "Hg2 mi
8:00 PM90 °FFog.No wind79%29.56 "Hg3 mi
7:30 PM88 °FFog.2 mph84%29.53 "Hg3 mi
6:30 PM90 °FHaze.2 mph75%29.56 "Hg3 mi
6:00 PM91 °FHaze.2 mph67%29.56 "Hg3 mi
5:30 PM91 °FScattered clouds.3 mph71%29.56 "Hg3 mi
5:00 PM91 °FScattered clouds.5 mph67%29.56 "Hg3 mi
4:30 PM93 °FScattered clouds.2 mph71%29.56 "Hg3 mi
4:00 PM91 °FFog.2 mph75%29.59 "Hg3 mi
3:30 PM90 °FFog.3 mph84%29.59 "Hg3 mi
2:30 PM90 °FFog.3 mph89%29.62 "Hg2 mi
2:00 PM88 °FFog.6 mph89%29.62 "Hg2 mi
1:30 PM84 °FFog.6 mph100%29.65 "Hg2 mi
1:00 PM82 °FThunderstorms. Broken clouds.2 mph100%29.62 "Hg2 mi
Weather by CustomWeather, © 2016

See weather overviewHow to use our weather pages